Wetbulb
57.89 57.96 56.88 53.75 52.01 50.94 50.20 49.84 49.68 49.80 49.44 49.11 48.53 48.62 48.44 48.48 48.45 48.60 48.88 48.77 48.76 48.50 48.10 47.90 48.13 48.28 48.30 48.34 48.99 50.21 50.52 51.79
56.25 56.34 56.39 55.77 54.93 50.34 49.37 49.66 49.15 49.23 49.17 48.75 48.53 48.65 48.32 48.10 47.64 47.36 47.34 47.25 47.40 47.01 47.07 46.55 47.05 47.69 47.45 47.38 48.48 50.25 50.98 51.20
55.04 54.70 55.25 55.19 53.18 52.22 51.62 50.86 50.15 49.55 48.64 48.51 48.42 47.63 47.32 46.89 47.31 47.04 47.31 46.87 47.01 46.62 46.55 46.27 46.84 47.86 47.88 47.55 48.66 48.81 48.78 49.32
53.77 54.16 53.76 54.11 52.00 52.97 52.29 51.19 50.43 49.59 48.21 47.17 47.12 47.53 46.95 46.35 46.92 47.21 47.50 47.06 47.10 46.61 46.40 46.35 46.59 45.95 46.48 47.38 46.99 47.12 47.31 48.87
52.09 53.37 53.42 52.96 52.51 51.45 50.98 50.22 49.54 48.78 47.94 46.46 46.70 46.34 46.09 45.69 45.54 45.24 45.69 46.57 45.29 45.05 44.76 44.47 44.67 45.28 45.37 45.51 45.85 46.28 46.75 47.40
51.30 51.79 52.17 52.34 51.97 51.00 50.53 49.07 48.32 47.39 46.86 46.49 45.55 44.98 44.78 44.69 44.42 44.65 44.73 44.78 44.78 44.14 43.62 44.06 44.31 44.74 44.95 44.95 45.11 45.45 45.97 46.67
50.74 51.40 51.42 51.32 51.42 50.26 49.59 48.51 47.55 47.21 46.49 45.99 45.24 44.34 43.74 44.39 44.21 44.26 44.20 44.43 43.90 43.32 43.23 42.94 43.46 44.10 44.39 44.38 44.11 45.06 45.98 46.11
50.64 50.30 50.95 50.95 50.21 49.97 48.57 47.89 47.50 46.51 45.99 45.56 45.05 44.14 43.52 43.61 43.81 43.67 43.53 43.83 43.85 43.17 42.46 42.50 42.63 43.14 43.14 43.55 43.82 44.63 45.51 46.09
49.17 49.32 50.37 49.98 49.72 48.92 48.39 47.46 46.60 45.53 45.21 45.61 44.67 44.06 43.40 43.61 43.30 43.08 42.96 43.79 43.83 43.18 42.56 42.54 42.14 42.85 42.46 42.17 43.51 44.64 45.50 45.70
49.51 49.18 49.13 49.13 48.94 48.29 47.38 46.72 46.18 45.25 44.97 44.97 44.27 43.88 43.53 43.39 42.94 42.68 43.00 43.28 42.90 42.26 41.65 40.94 40.94 41.33 40.62 40.98 42.68 44.37 45.59 45.36
48.83 48.88 47.95 47.98 47.91 48.05 48.50 47.56 45.86 44.99 44.71 44.21 43.82 43.50 43.29 43.04 42.73 42.69 42.80 42.52 42.12 41.62 41.22 40.78 39.55 39.69 39.85 40.65 42.23 43.76 45.13 44.25
48.67 48.28 47.69 47.60 48.02 47.55 46.99 46.43 45.86 45.02 44.11 43.54 43.41 43.16 43.08 42.95 42.59 42.34 42.22 41.58 41.25 41.08 40.37 40.46 39.51 39.17 39.12 40.00 42.40 44.08 44.33 44.01
47.73 47.35 47.09 47.01 46.12 44.54 44.13 43.41 43.85 43.65 43.48 43.49 43.10 42.77 42.96 42.62 41.96 41.78 41.51 40.40 40.64 40.76 40.03 38.83 37.80 39.14 37.82 38.43 40.41 43.08 41.97 40.99
47.32 47.04 46.59 45.82 45.24 44.62 43.90 43.88 43.80 43.34 43.31 43.47 43.26 42.62 42.89 42.16 41.55 41.10 40.90 39.92 40.27 40.05 39.34 37.04 36.60 37.90 34.96 35.83 33.00 38.87 38.52 39.96
46.86 46.60 45.99 44.93 44.46 44.41 43.85 44.23 43.62 41.96 41.97 42.02 42.54 42.59 42.38 42.17 41.47 41.05 40.59 40.09 38.91 39.29 38.23 36.03 32.10 35.40 36.54 33.91 29.52 29.28 32.35 38.81
47.16 46.06 44.97 44.09 43.84 42.86 41.70 40.55 39.18 40.38 41.03 41.81 42.32 42.59 42.11 41.96 41.56 41.07 40.45 39.83 38.90 38.73 37.66 33.76 31.00 29.78 33.10 34.57 33.87 32.88 28.85 29.17
46.85 45.70 44.10 43.52 43.01 41.87 41.04 40.03 40.42 41.08 41.28 41.08 41.59 42.03 42.19 41.73 41.41 41.04 39.82 38.82 39.01 38.27 36.38 33.17 31.83 30.24 29.52 30.24 30.95 31.47 32.43 29.07
46.50 44.56 42.85 42.90 42.11 41.53 40.39 39.60 39.64 39.49 39.63 39.52 39.94 40.74 41.15 41.56 41.02 40.72 39.91 38.10 38.20 37.36 35.20 32.88 31.43 30.89 30.74 30.78 30.51 28.69 28.14 27.87
44.77 43.36 41.36 41.98 41.31 40.84 40.22 39.81 40.02 39.20 38.92 38.86 38.72 38.82 39.53 39.69 40.29 39.70 38.47 37.72 38.17 36.20 33.16 32.30 32.17 31.17 30.26 30.91 32.33 30.98 30.97 30.15
43.52 42.18 41.05 41.11 40.56 40.42 40.33 39.89 39.37 39.32 38.98 38.75 38.29 38.38 39.04 39.43 39.09 38.55 37.81 37.71 37.95 34.42 33.50 33.73 33.86 33.29 31.55 31.73 31.48 32.05 31.73 31.28
MSLP
1023.38 1023.15 1023.94 1024.42 1024.61 1024.94 1024.96 1024.57 1024.21 1023.89 1023.58 1023.46 1022.91 1022.41 1022.23 1021.88 1021.76 1021.66 1021.43 1021.04 1020.73 1020.24 1019.81 1019.43 1018.85 1018.11 1017.43 1016.99 1016.47 1015.93 1015.16 1013.51
1023.01 1023.28 1023.24 1023.32 1023.53 1024.51 1024.50 1024.32 1024.15 1023.95 1023.79 1023.43 1022.70 1022.12 1021.98 1021.78 1021.53 1021.78 1021.50 1021.14 1020.55 1020.04 1019.62 1019.18 1018.64 1017.85 1017.11 1016.86 1016.25 1015.28 1014.31 1013.32
1023.29 1023.07 1023.34 1023.41 1023.14 1023.53 1023.57 1023.65 1023.70 1023.70 1023.65 1023.36 1022.44 1022.27 1021.99 1021.74 1021.50 1021.51 1021.12 1020.71 1020.24 1019.76 1019.32 1018.96 1018.12 1017.03 1016.65 1016.55 1015.83 1014.58 1014.62 1014.11
1023.11 1023.73 1023.75 1023.35 1023.22 1023.36 1023.28 1023.36 1023.53 1023.61 1023.77 1023.69 1022.85 1022.60 1022.40 1022.08 1021.50 1021.15 1020.72 1020.33 1019.83 1019.58 1019.02 1018.50 1017.86 1017.32 1016.59 1016.33 1015.74 1015.67 1014.93 1013.92
1023.07 1023.87 1024.15 1023.99 1023.39 1023.49 1023.38 1023.39 1023.66 1023.60 1023.94 1024.22 1023.50 1022.93 1022.77 1022.28 1021.69 1021.30 1020.86 1020.30 1019.91 1019.65 1019.00 1018.61 1018.49 1017.93 1017.24 1016.87 1016.45 1015.88 1015.09 1014.45
1023.42 1023.96 1024.31 1024.31 1023.85 1023.65 1023.75 1023.73 1024.05 1023.99 1024.23 1024.65 1024.13 1023.44 1023.25 1022.82 1022.24 1021.78 1021.30 1020.82 1020.45 1020.02 1019.38 1019.07 1018.44 1017.82 1017.38 1016.86 1016.54 1016.05 1015.41 1015.14
1023.87 1024.27 1024.52 1024.41 1024.21 1024.34 1024.19 1024.23 1024.26 1024.47 1024.39 1024.86 1024.74 1024.18 1023.89 1023.28 1022.65 1022.12 1021.72 1021.36 1020.91 1020.22 1019.68 1019.13 1018.35 1017.64 1017.18 1016.83 1016.45 1015.87 1015.41 1015.18
1024.19 1024.49 1024.76 1024.57 1024.54 1024.69 1024.46 1024.61 1024.59 1024.58 1024.65 1025.09 1025.16 1024.85 1024.52 1023.74 1022.92 1022.52 1022.28 1021.88 1021.28 1020.62 1020.16 1019.36 1018.64 1018.01 1017.23 1016.86 1016.28 1015.66 1015.23 1015.21
1024.24 1024.32 1024.83 1024.94 1024.77 1024.77 1024.58 1024.97 1024.84 1024.79 1024.83 1025.02 1025.40 1025.18 1024.92 1024.24 1023.31 1022.95 1022.87 1022.26 1021.50 1020.93 1020.40 1019.64 1018.89 1017.99 1017.41 1017.00 1016.07 1015.37 1015.03 1015.31
1024.38 1024.48 1024.60 1024.86 1025.18 1024.99 1025.01 1025.21 1024.98 1024.90 1024.95 1025.05 1025.55 1025.32 1025.21 1024.46 1023.55 1023.34 1023.35 1022.26 1021.68 1021.22 1020.72 1020.00 1019.28 1018.41 1017.95 1017.17 1016.11 1015.30 1014.94 1015.07
1024.29 1024.69 1024.86 1025.01 1025.09 1024.82 1024.58 1024.65 1024.77 1024.88 1024.99 1025.30 1025.64 1025.33 1025.27 1024.72 1023.94 1023.75 1023.49 1022.51 1022.14 1021.66 1021.11 1020.63 1019.78 1018.99 1018.29 1017.27 1016.18 1015.30 1014.97 1014.92
1024.45 1024.71 1025.14 1024.97 1024.66 1024.44 1024.19 1024.14 1024.26 1024.70 1024.94 1025.42 1025.62 1025.38 1025.26 1024.75 1024.17 1023.92 1023.62 1022.81 1022.40 1022.10 1021.54 1021.12 1020.49 1019.68 1018.70 1017.30 1015.76 1015.27 1015.26 1015.08
1024.41 1024.84 1025.21 1024.98 1024.61 1024.61 1024.53 1024.34 1024.32 1024.52 1024.77 1025.27 1025.50 1025.62 1025.31 1024.91 1024.46 1024.09 1023.81 1023.22 1022.72 1022.36 1021.86 1021.45 1020.94 1020.32 1019.19 1017.80 1016.16 1015.08 1015.68 1015.92
1024.48 1024.74 1025.24 1025.32 1025.05 1024.99 1024.93 1024.48 1024.28 1024.56 1024.69 1024.94 1025.25 1025.60 1025.43 1025.05 1024.86 1024.39 1024.07 1023.57 1022.94 1022.63 1022.25 1022.03 1021.85 1021.22 1020.31 1019.04 1017.49 1015.57 1016.39 1016.39
1024.43 1024.90 1025.31 1025.81 1025.89 1025.12 1024.94 1024.31 1024.15 1024.41 1024.73 1024.75 1025.18 1025.37 1025.34 1025.25 1025.10 1024.76 1024.37 1023.89 1023.28 1022.97 1022.98 1023.10 1023.05 1022.12 1021.66 1020.90 1019.93 1018.88 1018.50 1016.39
1024.65 1025.20 1025.60 1025.95 1026.19 1025.66 1025.45 1025.00 1024.85 1025.08 1025.03 1025.08 1025.06 1025.15 1025.20 1025.08 1025.10 1024.81 1024.52 1024.17 1023.71 1023.42 1023.54 1024.32 1024.21 1023.37 1022.79 1022.29 1022.03 1021.18 1020.09 1018.25
1024.91 1025.38 1025.84 1026.24 1026.29 1026.27 1025.89 1025.73 1025.62 1025.47 1025.40 1025.29 1025.01 1024.92 1024.95 1024.92 1025.14 1024.89 1024.70 1024.41 1024.04 1023.79 1023.97 1024.38 1024.32 1024.05 1023.57 1023.03 1022.42 1021.61 1020.86 1020.39
1024.96 1025.47 1026.16 1026.46 1026.55 1026.51 1026.46 1026.38 1026.20 1025.91 1025.82 1025.43 1025.31 1024.99 1024.78 1024.79 1025.05 1024.93 1024.81 1024.76 1024.28 1024.04 1024.53 1024.65 1024.47 1024.24 1023.89 1023.34 1022.86 1022.36 1021.63 1021.07
1025.14 1025.65 1026.32 1026.57 1026.68 1026.65 1026.68 1026.61 1026.31 1026.06 1026.10 1025.86 1025.65 1025.36 1025.10 1025.28 1025.21 1025.01 1024.94 1024.99 1024.47 1024.62 1025.03 1024.67 1024.30 1024.18 1023.99 1023.44 1022.92 1022.46 1022.11 1021.50
1025.27 1025.66 1026.18 1026.60 1026.74 1026.74 1026.84 1026.86 1026.65 1026.48 1026.58 1026.39 1025.99 1025.85 1025.67 1025.78 1025.72 1025.50 1025.21 1025.02 1024.50 1025.03 1024.99 1024.43 1024.07 1023.81 1023.55 1023.28 1022.86 1022.35 1021.95 1021.58
Wind_Speed
5 4 10 13 13 13 13 15 17 18 17 17 15 14 15 15 15 18 19 19 19 18 19 20 20 20 17 18 20 22 14 12
6 5 6 5 6 8 7 12 13 15 17 17 15 15 15 17 14 17 17 17 18 18 19 19 19 19 14 15 20 22 13 10
6 8 7 6 7 5 7 10 10 13 15 19 14 11 13 16 14 16 17 16 18 18 18 19 17 16 15 15 19 8 11 9
8 8 8 7 6 7 8 8 9 9 12 15 11 12 13 14 15 18 18 17 18 19 18 18 16 11 9 13 8 11 10 8
8 7 7 9 6 6 5 5 7 7 13 14 12 10 10 10 8 9 11 15 10 14 13 11 14 11 10 10 11 11 8 7
8 8 7 7 7 6 6 7 7 8 9 13 11 8 10 10 8 11 11 10 13 13 10 13 13 13 12 11 12 10 8 7
7 8 7 7 7 7 7 7 7 8 8 11 10 10 10 10 9 9 10 11 11 11 12 12 13 13 12 12 12 11 10 7
6 8 7 7 6 6 6 7 7 7 7 9 12 10 10 10 10 10 11 11 10 11 12 12 12 12 12 13 12 11 9 8
6 6 7 7 7 7 6 7 7 7 7 9 11 11 12 12 9 10 11 11 13 11 12 12 12 11 14 14 11 10 7 7
6 6 7 6 6 5 5 6 6 6 7 7 11 11 12 12 9 10 11 10 10 11 11 12 12 12 12 12 11 9 6 6
7 6 7 6 5 4 3 3 5 5 6 7 10 10 12 11 9 10 12 10 10 10 11 12 12 12 13 13 12 7 5 5
6 6 6 4 4 4 5 5 5 5 5 7 9 9 11 10 9 11 11 10 10 11 13 11 12 12 13 13 11 3 7 10
5 6 6 6 5 6 6 6 5 5 5 7 8 9 10 11 9 11 11 11 11 12 11 13 11 13 12 12 13 6 10 12
5 5 6 6 5 5 5 5 5 5 6 6 7 9 10 10 11 11 12 10 12 13 13 11 9 12 12 10 9 3 14 15
5 5 5 6 8 5 6 5 4 6 7 6 8 8 10 10 11 10 11 10 10 12 13 14 10 11 13 8 7 7 14 10
6 5 6 6 7 7 8 7 7 6 6 7 7 7 8 9 11 11 11 10 11 11 9 9 9 10 10 8 10 10 10 10
6 5 6 6 7 8 8 8 7 6 6 9 8 7 8 8 11 11 11 9 11 12 12 11 7 7 8 9 9 9 10 10
6 5 6 6 6 7 8 8 8 7 8 8 8 7 7 9 11 10 11 11 12 11 12 11 10 8 8 8 7 8 9 8
6 5 5 5 6 7 8 8 7 8 9 8 10 8 8 10 12 11 10 12 12 11 11 9 8 7 9 9 8 7 8 9
6 5 6 6 6 7 7 8 7 7 9 8 7 8 9 11 12 12 12 13 12 10 8 8 9 8 10 9 8 8 7 8
Wind_Direction
60 50 129 113 77 44 33 29 24 19 13 6 1 354 3 2 359 2 352 350 346 344 343 341 337 334 331 327 324 312 298 282
85 48 24 23 53 66 37 27 22 15 6 3 353 354 2 357 3 357 346 346 343 344 340 338 330 321 322 328 321 302 263 323
49 43 30 23 31 60 18 25 21 16 11 359 357 1 359 346 353 346 343 348 339 348 338 334 324 326 326 339 309 341 333 301
67 34 18 356 25 357 17 21 15 18 17 359 3 356 1 345 348 345 346 351 341 346 341 333 344 336 333 329 341 332 300 312
50 51 31 4 11 357 18 22 4 10 18 8 1 351 358 352 349 347 346 352 354 343 342 351 341 334 337 328 330 326 318 319
57 53 29 29 352 17 14 10 10 7 14 13 359 353 357 349 352 346 347 351 349 346 343 339 336 333 333 328 332 323 320 319
48 49 33 28 31 10 17 10 20 358 11 20 1 352 357 345 346 347 350 344 345 341 343 337 334 337 332 332 328 320 319 308
62 54 40 26 30 15 9 25 2 7 9 18 4 357 356 343 348 350 352 340 340 343 345 336 340 336 332 336 324 319 325 329
74 69 49 23 15 4 21 34 357 6 5 19 6 7 357 339 350 349 356 336 341 346 343 342 337 335 341 334 321 324 327 326
71 48 42 34 14 27 11 27 350 5 8 9 11 8 359 341 349 353 347 340 344 348 347 344 338 340 345 327 325 319 352 329
84 57 43 11 40 353 350 41 9 12 15 16 10 6 359 345 350 351 342 345 344 349 347 349 335 345 337 329 319 328 336 8
86 60 35 357 359 350 357 359 23 15 14 24 5 4 356 346 349 350 346 344 343 350 346 351 336 342 339 334 307 338 331 353
70 70 40 354 17 357 353 357 4 5 12 17 3 358 355 346 351 347 351 346 347 349 347 348 346 340 341 343 331 323 37 333
107 71 52 20 4 3 342 347 350 0 14 1 11 356 350 349 350 346 351 341 346 348 352 351 345 336 352 347 342 304 10 324
101 73 55 38 351 13 353 348 350 14 358 360 354 357 350 354 351 349 345 343 347 352 358 356 344 332 358 358 342 349 328 4
106 73 49 48 24 11 0 359 2 2 353 2 334 350 346 353 350 350 347 341 345 356 2 357 337 333 339 359 327 319 320 316
108 99 63 44 30 16 0 10 357 351 356 339 348 346 350 357 349 349 349 347 340 351 354 350 335 327 328 323 322 320 327 332
120 95 66 42 25 23 15 8 352 348 357 342 350 347 347 12 345 353 348 347 336 355 353 339 338 333 323 314 318 324 322 319
128 97 78 44 27 23 16 8 358 346 354 353 334 346 351 4 344 350 351 342 331 4 339 326 330 328 323 315 307 307 312 306
127 109 77 45 30 18 22 11 5 357 356 347 345 345 351 354 347 345 348 337 341 355 329 324 325 328 323 315 313 309 305 299